APRIZESAT 6

Last updated on July 6, 2021, 3:44 p.m. UTC

1 37793U 11044F   21186.86617434  .00000085  00000-0  21868-4 0  9998
2 37793  98.4284  21.5959 0048062  71.9545  51.3303 14.72550675530856
UTC
Height (km)
Latitude
Longitude
Inclination
Orbital Period
UTC large
Height (km)
Speed (km/s)
/
Latitude / Longitude
Inclination (degrees)
Orbital Period (minutes)
Azimuth
Elevation
Range (km)
Doppler Factor
iOS Compass Heading
iOS Angle